GW1686 Weather Reports


time (UTC)temp
C
wind
direction
speed
KPH
gust
KPH
rain 1hr
cm
rain 24hr
cm
rain mn
cm
humidity
%
barometer
mb
20260831163054 31 0 3.2 8.0 0.00 1.32 0.03 72 1014.0
20260831161550 31 0 0.0 6.4 0.00 1.32 0.03 71 1014.0
20260831160043 31 139 1.6 4.8 0.00 1.32 0.03 71 1014.0
20260831154606 31 0 1.6 4.8 0.00 1.32 0.03 72 1013.9
20260831153050 30 102 1.6 4.8 0.00 1.32 0.03 75 1013.9
20260831151548 30 0 0.0 4.8 0.00 1.32 0.03 76 1013.9
20260831150043 30 0 0.0 6.4 0.00 1.32 0.03 78 1013.8
20260831144552 30 101 1.6 6.4 0.00 1.32 0.03 79 1013.6
20260831143055 29 0 0.0 4.8 0.00 1.32 0.03 82 1013.6
20260831141557 28 72 0.0 4.8 0.00 1.32 0.03 84 1013.6
20260831140043 28 0 0.0 4.8 0.00 1.32 0.03 87 1013.7
20260831134555 27 0 0.0 4.8 0.00 1.32 0.03 91 1013.7
20260831133048 26 5 0.0 4.8 0.00 1.32 0.03 93 1013.7
20260831131548 26 0 0.0 4.8 0.00 1.32 0.03 95 1013.7
20260831130055 26 0 0.0 0.0 0.00 1.32 0.03 96 1013.7
20260831124600 25 9 0.0 0.0 0.00 1.32 0.03 97 1013.5
20260831123050 25 0 0.0 0.0 0.03 1.32 0.03 97 1013.6
20260831121551 25 0 0.0 0.0 0.03 1.32 0.03 97 1013.3
20260831120053 24 0 0.0 0.0 0.03 1.32 0.03 97 1013.0
20260831114554 24 0 0.0 0.0 0.03 1.32 0.03 96 1012.9
20260831113050 24 0 0.0 0.0 0.00 1.30 0.00 96 1012.5
20260831111545 24 0 0.0 0.0 0.00 1.30 0.00 96 1012.5
20260831110042 24 0 0.0 0.0 0.00 1.30 0.00 96 1012.3
20260831104604 24 0 0.0 0.0 0.00 1.30 0.00 96 1012.1
20260831103052 24 0 0.0 0.0 0.00 1.30 0.00 96 1012.0
20260831101546 24 0 0.0 0.0 0.00 1.30 0.00 96 1011.9
20260831100052 24 0 0.0 0.0 0.00 1.30 0.00 96 1011.8
20260831094605 24 0 0.0 0.0 0.00 1.30 0.00 95 1011.9
20260831093051 24 0 0.0 0.0 0.00 1.30 0.00 95 1012.0
20260831091542 24 0 0.0 0.0 0.00 1.30 0.00 95 1012.0
20260831090059 24 0 0.0 0.0 0.00 1.30 0.00 96 1011.8
20260831084553 24 0 0.0 0.0 0.00 1.30 0.00 96 1011.8
20260831083100 24 0 0.0 0.0 0.00 1.30 0.00 95 1011.7
20260831081559 24 0 0.0 0.0 0.00 1.30 0.00 95 1011.7
20260831080053 24 0 0.0 0.0 0.00 1.30 0.00 95 1011.9
20260831074551 24 0 0.0 0.0 0.00 1.30 0.00 95 1011.9
20260831073055 24 0 0.0 0.0 0.00 1.30 0.00 95 1011.9
20260831071554 24 0 0.0 0.0 0.00 1.30 0.00 95 1012.1
20260831070055 24 0 0.0 0.0 0.00 1.30 0.00 94 1012.1
20260831064544 24 0 0.0 0.0 0.00 1.30 0.00 94 1012.1
20260831063052 24 0 0.0 0.0 0.00 1.30 0.00 94 1012.2
20260831061552 24 0 0.0 0.0 0.00 1.30 0.00 94 1012.3
20260831060051 24 0 0.0 0.0 0.00 1.30 0.00 95 1012.4
20260831054545 24 0 0.0 0.0 0.00 1.30 0.00 95 1012.5
20260831053053 24 0 0.0 0.0 0.00 1.30 0.00 95 1012.6
20260831051550 24 0 0.0 0.0 0.00 1.30 0.00 95 1012.9
20260831050107 24 0 0.0 0.0 0.00 1.30 0.00 95 1013.0
20260831044617 24 0 0.0 3.2 0.00 1.30 0.00 95 1012.8
20260831043051 24 0 0.0 0.0 0.00 1.30 0.00 95 1012.9
20260831041602 24 0 0.0 3.2 0.00 1.30 0.00 96 1013.0
20260831040049 24 0 0.0 0.0 0.00 1.30 0.00 96 1013.0
20260831034554 24 0 0.0 1.6 0.00 1.30 1.30 96 1012.9
20260831033051 24 0 0.0 0.0 0.00 1.30 1.30 96 1013.1
20260831031554 24 0 0.0 0.0 0.00 1.30 1.30 96 1012.9
20260831030058 24 0 0.0 0.0 0.00 1.30 1.30 96 1012.9
20260831024610 23 0 0.0 0.0 0.00 1.30 1.30 96 1013.1
20260831023054 24 0 0.0 0.0 0.00 1.30 1.30 96 1013.1
20260831021547 24 0 0.0 0.0 0.00 1.30 1.30 96 1013.1
20260831020107 24 0 0.0 0.0 0.00 1.30 1.30 96 1013.1
20260831014602 24 0 0.0 0.0 0.00 1.30 1.30 96 1013.1
20260831013048 24 0 0.0 0.0 0.00 1.30 1.30 96 1013.0
20260831011604 24 0 0.0 0.0 0.00 1.30 1.30 96 1012.9
20260831010052 24 0 0.0 0.0 0.00 1.30 1.30 96 1012.8
20260831004549 25 0 0.0 0.0 0.00 1.32 1.30 96 1012.7
20260831003048 25 0 0.0 0.0 0.00 1.32 1.30 96 1012.8
20260831001555 24 0 0.0 0.0 0.00 1.32 1.30 96 1012.8
20260831000057 25 0 0.0 0.0 0.00 1.32 1.30 95 1012.7
20260830234609 24 0 0.0 0.0 0.00 1.42 1.30 95 1012.6
20260830233049 25 0 0.0 0.0 0.00 1.42 1.30 95 1012.5
20260830231553 25 0 0.0 1.6 0.00 1.42 1.30 95 1012.3
20260830224551 24 0 0.0 1.6 0.05 1.78 1.30 95 1012.3
20260830223048 24 0 0.0 4.8 0.48 1.78 1.30 94 1012.3
20260830221551 24 0 0.0 4.8 1.09 1.78 1.30 94 1012.1
20260830220053 24 0 0.0 3.2 1.12 1.78 1.30 94 1012.3
20260830214553 24 0 1.6 6.4 1.07 1.73 1.24 93 1012.3
20260830213052 24 0 1.6 12.9 0.64 1.30 0.81 92 1012.7
20260830211603 25 360 6.4 17.7 0.18 0.66 0.18 88 1012.3
20260830210051 27 134 9.7 19.3 0.18 0.66 0.18 80 1012.3
20260830204550 30 313 3.2 14.5 0.18 0.66 0.18 79 1011.6
20260830203055 32 0 0.0 12.9 0.18 0.66 0.18 78 1011.7
20260830201610 33 0 1.6 12.9 0.00 0.48 0.00 69 1011.4
20260830200051 32 249 3.2 14.5 0.00 0.48 0.00 69 1011.6
20260830194549 32 257 1.6 12.9 0.00 0.48 0.00 71 1011.6
20260830193053 32 246 3.2 14.5 0.00 0.48 0.00 70 1012.0
20260830191551 33 267 3.2 11.3 0.00 0.48 0.00 70 1012.1
20260830190050 33 274 3.2 8.0 0.00 0.48 0.00 70 1012.1
20260830184545 33 217 3.2 11.3 0.00 0.48 0.00 69 1012.3
20260830183052 32 257 3.2 11.3 0.00 0.48 0.00 71 1012.5
20260830181604 32 0 1.6 8.0 0.00 0.48 0.00 72 1012.7
20260830180054 32 261 3.2 11.3 0.00 0.48 0.00 72 1013.1
20260830174554 31 196 6.4 12.9 0.00 0.48 0.00 74 1013.2
20260830173049 31 229 1.6 8.0 0.00 0.48 0.00 74 1013.4
20260830171551 31 0 0.0 1.6 0.00 0.48 0.00 71 1013.4
20260830170046 31 274 0.0 3.2 0.00 0.48 0.00 75 1013.6
20260830164551 30 0 0.0 4.8 0.00 0.48 0.00 76 1013.8